Regional Weather Roundup
Issued by NWS

Home | Current Version | Previous Version | Text Only | Print | Product List | Glossary Off
Versions: 1 2 3 4 5 6 7 8 9 10 11 12 13 14 15 16 17 18 19 20 21 22 23 24 25 26 27 28 29 30 31 32 33 34 35 36 37 38 39 40 41 42 43 44 45 46 47 48 49 50

000
ASUS45 KTFX 260510
RWRMT
MONTANA REGIONAL WEATHER ROUNDUP
NATIONAL WEATHER SERVICE GREAT FALLS MT
1100 PM MDT WED MAY 25 2016

NOTE: "FAIR" INDICATES FEW OR NO CLOUDS BELOW 12000 FEET WITH NO
SIGNIFICANT WEATHER AND/OR OBSTRUCTIONS TO VISIBILITY.

MTZ001>007-043-260600-
WEST OF THE DIVIDE

CITY           SKY/WX    TMP DP  RH WIND       PRES   REMARKS
KALISPELL      PTCLDY    50  49  96 CALM      29.97R
MISSOULA       PTCLDY    52  46  80 N3        30.02R
BUTTE          CLOUDY    49  34  56 W3        30.04R
MULLAN PASS    CLOUDY    44  41  89 NW6       30.09R
ANACONDA         N/A     52  36  54 W5        30.02S
DEER LODGE       N/A     48  39  71 CALM      30.02S
EUREKA           N/A     57  46  67 SE5         N/A
HAMILTON         N/A     54  39  58 SE5       30.03S
LIBBY            N/A     54  48  82 SE3       29.98R
$$

MTZ008-052>055-260600-
SOUTHWEST MONTANA

CITY           SKY/WX    TMP DP  RH WIND       PRES   REMARKS
BOZEMAN        MOCLDY    52  41  66 SW5       29.98R
DILLON         CLEAR     49  31  49 S3        30.01R
ENNIS          CLEAR     46  37  71 SE9       30.07R
$$

MTZ009-010-012-014-046-048-049-054-260600-
EAST SLOPES AND CENTRAL MONTANA

CITY           SKY/WX    TMP DP  RH WIND       PRES   REMARKS
CUT BANK         N/A     44  40  85 SW3       29.94R
GREAT FALLS    PTCLDY    49  42  77 W3        29.93S
MALMSTROM AFB  PTCLDY    54  46  74 W5        29.92S
HELENA         PTCLDY    55  43  63 S7        29.95S
CHOTEAU          N/A     50  46  87 NW7       29.95R
$$

MTZ011-013-016-021-045-047-050-051-260600-
NORTH CENTRAL MONTANA

CITY           SKY/WX    TMP DP  RH WIND       PRES   REMARKS
HAVRE            N/A    N/A N/A N/A MISG      29.89R
LEWISTOWN      CLEAR     45  40  82 W10       29.92R
N BAR RANCH      N/A     43  39  87 NW8       29.93S
CHINOOK          N/A     46  45  93 CALM      29.89R
$$

MTZ017>020-022>027-061-062-260600-
NORTHEAST MONTANA

CITY           SKY/WX    TMP DP  RH WIND       PRES   REMARKS
GLASGOW        CLOUDY    54  44  69 SW7       29.84R
JORDAN           N/A     53  43  68 NW10      29.85S
SIDNEY         CLEAR     48  46  93 CALM      29.82S
WOLF POINT     PTCLDY    48  43  82 W5        29.83S
PLENTYWOOD       N/A     48  48 100 W5        29.83S
$$

MTZ028>42-056>058-260600-
SOUTHCENTRAL AND SOUTHEAST MONTANA

CITY           SKY/WX    TMP DP  RH WIND       PRES   REMARKS
BAKER          PTCLDY    50  44  80 W6        29.86S
BILLINGS       MOCLDY    49  44  83 S6        29.94S
LIVINGSTON     CLOUDY    52  38  58 CALM      29.96S
MILES CITY     MOCLDY    55  48  77 SW12      29.86R
FORSYTH          N/A     50  48  93 SE7       29.87F
$$

REGIONAL REPORTS...DAKOTAS

CITY           SKY/WX    TMP DP  RH WIND       PRES   REMARKS
WILLISTON      CLEAR     47  45  93 NW6       29.82S
MINOT          CLOUDY    60  55  83 S10       29.73F
DICKINSON      CLEAR     41  38  89 W7        29.81F
BEACH            N/A     45  45 100 CALM      29.86F
CROSBY         LGT RAIN  54  54 100 E12       29.80S
WATFORD CITY     N/A     45  45 100 S3        29.82S
BISMARCK       PTCLDY    55  51  86 W8        29.80R
GRAND FORKS    CLOUDY    59  56  89 SW7       29.70R
FARGO          LGT RAIN  58  54  86 N5        29.73F
BUFFALO SD       N/A     49  42  77 W7        29.80F
RAPID CITY     PTCLDY    50  46  86 NW6       29.89F
$$

REGIONAL REPORTS...WYOMING/IDAHO/WASHINGTON

CITY           SKY/WX    TMP DP  RH WIND       PRES   REMARKS
GILLETTE       PTCLDY    52  45  77 SW16      29.93S
SHERIDAN       CLOUDY    43  40  89 SW6       29.91R
BUFFALO WY     CLOUDY    49  40  71 S7        29.96S
CODY           CLOUDY    52  37  58 CALM      29.96F
YELLOWSTONE LA   N/A     32  29  88 CALM      30.12R
IDAHO FALLS    CLOUDY    48  42  80 SW5       30.05R
SALMON         PTCLDY    55  34  44 SW5       30.01R
BOISE          CLEAR     63  39  41 CALM      29.99R
SPOKANE        MOCLDY    63  43  48 SW14      29.99R
$$

REGIONAL REPORTS...ALBERTA

CITY           SKY/WX    TMP DP  RH WIND       PRES   REMARKS
EDMONTON       CLOUDY    55  48  76 NE3       29.90S
CALGARY        CLOUDY    54  50  87 N9        29.95R
LETHBRIDGE     CLEAR     48  43  81 S9G17     29.91S
MEDICINE HAT   CLEAR     52  46  82 E5        29.90S
WATERTON GATE    N/A     54  43  66 SW14G22     N/A
CARDSTON         N/A     50  45  81 SE3         N/A
MILK RIVER       N/A     48  43  81 S3          N/A
$$

REGIONAL REPORTS...SASKATCHEWAN

CITY           SKY/WX    TMP DP  RH WIND       PRES   REMARKS
SWIFT CURRENT  CLOUDY    50  48  93 E7        29.88S
REGINA         LGT RAIN  52  52 100 NE9       29.85S
SASKATOON      MOCLDY    57  48  72 N6        29.88S
CYPRESS HILLS    N/A     43  39  87 NE2         N/A
VAL MARIE        N/A     52  46  82 NE8         N/A
ROCKGLEN         N/A     43  43 100 N6          N/A
ASSINIBOIA       N/A     61  50  67 N10         N/A
$$



USA.gov is the U.S. government's official web portal to all federal, state and local government web resources and services.